Wind_Speed
25 26 28 33 30 36 31 32 24 11 12 23 20 29 31 33 35 37 38 40 43 44 41 40 38 37 36 35 32 32 32 31 32 31 31 32 31 27
25 25 24 26 37 29 34 34 34 26 13 26 27 21 32 35 34 37 40 44 43 46 46 43 42 40 39 38 37 35 35 32 31 33 32 34 32 34
28 28 30 28 29 36 33 32 36 33 18 24 27 29 25 31 33 38 35 40 45 46 47 47 46 43 43 41 39 36 35 33 33 32 31 30 31 32
30 29 30 27 28 27 30 35 33 35 30 24 27 25 31 30 30 31 36 35 40 43 49 49 51 49 45 43 42 39 38 35 32 31 27 28 26 27
32 32 32 30 31 31 32 28 36 37 37 29 29 29 28 28 30 30 31 33 34 38 39 46 50 51 49 48 45 42 41 39 37 35 35 32 30 30
35 35 35 34 34 31 30 33 35 37 35 31 30 27 30 28 30 29 25 27 29 36 39 40 45 51 51 51 50 47 45 42 39 37 36 35 33 31
36 38 37 37 38 37 34 34 30 38 32 30 28 20 22 19 29 29 29 26 27 29 31 37 41 44 48 50 50 51 46 42 39 39 38 35 32 31
38 37 39 38 41 43 44 47 42 35 38 34 33 27 30 33 30 32 30 20 8 29 30 29 33 33 38 45 51 51 45 41 40 39 37 35 33 31
39 40 40 39 38 38 40 45 50 52 55 42 37 37 37 40 38 36 34 32 27 24 34 26 27 32 35 39 43 47 43 40 39 38 36 34 33 32
41 42 43 44 41 39 37 37 43 46 53 53 47 44 43 43 42 45 43 39 28 25 32 17 27 29 32 34 38 38 36 36 34 33 33 33 32 32
41 42 44 46 49 46 42 42 37 44 45 52 55 47 47 44 41 35 31 25 17 17 31 23 19 22 25 30 36 35 34 35 35 34 34 33 32 31
38 41 47 51 49 48 46 43 39 43 40 39 58 58 53 48 45 47 39 32 26 16 25 26 24 22 7 27 33 34 35 37 37 37 35 33 31 29
36 37 40 47 51 53 52 46 49 44 40 43 43 47 43 41 45 51 46 42 33 24 28 39 24 25 14 8 23 30 33 35 34 34 32 29 28 27
40 40 43 47 49 51 52 58 58 45 44 41 38 37 37 37 39 46 46 39 40 36 33 42 30 32 26 14 9 20 29 31 30 30 26 26 26 25
43 45 50 50 48 50 52 54 54 52 46 38 38 39 40 42 40 40 43 41 37 34 32 41 43 38 36 25 20 15 16 26 29 26 25 24 23 24
46 48 51 51 46 45 46 49 50 46 46 43 39 45 37 35 37 39 38 39 29 32 34 39 43 36 33 34 35 25 23 17 27 26 24 22 21 21
42 38 36 35 38 40 42 43 43 45 45 46 41 37 35 37 36 38 36 33 28 23 27 34 36 37 32 31 26 30 34 21 27 30 25 22 17 17
37 30 28 30 31 35 36 38 42 41 46 42 47 41 35 36 35 33 33 33 30 25 25 30 33 25 17 9 18 30 33 26 25 26 26 24 17 14
26 21 24 29 30 34 36 41 30 42 48 51 36 41 34 33 34 31 33 30 26 26 30 34 34 26 7 3 7 23 26 25 28 24 23 16 18 17
30 22 6 23 29 32 35 37 40 40 42 44 36 32 36 34 31 31 33 27 27 21 23 28 33 34 19 13 8 7 19 29 30 27 23 20 20 17
31 27 22 13 6 18 32 29 44 36 38 43 32 31 37 35 33 35 34 34 31 25 20 27 31 30 33 35 15 11 12 20 25 31 31 25 17 15
33 28 26 21 17 15 1 22 26 40 41 38 36 34 35 37 33 31 31 29 29 27 24 25 34 33 26 16 20 21 21 27 21 24 23 13 11 7
37 33 29 29 29 30 27 19 5 32 41 33 33 32 31 27 26 27 27 28 25 27 32 27 24 23 24 32 36 26 29 27 30 31 26 21 21 20
Wind_Direction
280 280 274 267 266 217 221 219 212 217 219 215 220 222 220 220 218 217 220 223 223 222 222 223 218 221 223 224 227 231 235 236 235 235 237 238 234 234
275 274 272 269 267 241 215 220 220 218 232 214 219 215 213 217 218 219 225 224 225 225 226 225 226 223 225 228 231 234 238 241 244 245 244 244 239 239
276 273 271 271 269 271 226 220 222 220 227 228 218 214 214 213 217 217 219 222 224 227 228 228 228 230 230 231 234 236 240 243 245 247 252 251 249 249
272 271 269 271 266 268 280 216 223 223 223 225 218 209 210 210 213 215 217 216 218 227 226 230 229 230 232 235 238 238 239 242 245 246 247 248 248 244
271 267 268 266 265 257 256 256 215 223 222 225 227 213 211 206 208 214 216 218 220 222 230 231 231 233 235 236 238 240 240 241 242 246 248 249 251 253
270 267 263 262 260 263 262 258 241 218 216 216 227 219 208 206 206 203 206 213 217 226 228 233 233 233 236 239 239 240 244 245 248 244 246 247 249 253
268 267 264 259 258 255 255 256 265 219 212 208 215 209 198 194 202 204 209 208 218 220 221 231 231 233 235 237 240 240 244 247 243 242 244 244 246 247
265 266 266 264 260 256 253 252 253 261 215 209 211 211 205 207 208 205 203 200 205 217 219 222 220 221 230 235 236 236 238 239 240 241 243 243 244 243
262 262 263 261 259 257 256 250 250 254 251 216 209 213 215 210 210 205 205 209 214 205 204 216 217 226 231 234 236 234 236 238 241 238 236 238 239 243
260 256 256 258 256 253 253 251 245 246 242 238 219 218 218 218 212 210 204 209 211 206 200 199 209 216 224 226 234 231 230 232 230 230 233 235 240 245
264 256 251 252 252 250 250 250 255 240 238 231 228 219 220 218 212 207 203 200 210 205 195 204 189 203 209 217 230 227 226 228 230 232 236 238 241 245
268 262 256 250 249 247 243 247 247 251 232 225 225 225 221 219 214 205 203 202 207 205 205 199 187 188 194 226 227 224 224 228 231 235 235 235 239 242
269 266 258 251 246 244 240 240 241 240 241 226 221 219 217 212 210 209 210 208 208 217 204 196 191 192 201 165 210 218 223 225 226 229 230 232 237 237
269 265 262 257 246 242 239 237 240 245 251 222 217 212 211 203 205 206 211 213 214 215 210 205 198 192 192 179 175 205 214 217 221 223 224 227 229 229
271 265 260 258 250 240 238 238 237 235 238 238 211 210 208 206 204 202 207 213 211 216 212 209 206 204 199 200 194 189 187 211 214 217 219 220 220 222
272 265 255 249 250 237 233 237 233 230 230 242 204 202 201 194 192 194 198 201 200 198 202 210 210 208 199 206 205 193 192 177 201 207 211 212 211 214
278 259 247 237 233 234 224 230 226 222 223 236 215 207 192 186 192 193 196 192 194 186 179 199 208 209 208 206 194 198 186 178 186 193 192 184 189 202
291 252 235 232 226 218 217 225 220 215 214 226 205 193 186 184 186 188 185 191 197 184 179 173 171 158 140 154 180 180 181 176 180 185 185 170 166 182
325 242 222 222 214 210 215 213 228 218 212 214 204 187 185 184 178 182 187 191 197 186 182 175 175 174 159 145 158 187 176 174 172 169 176 170 164 163
349 352 277 213 202 205 213 210 221 213 204 210 207 180 181 178 177 182 190 190 192 181 172 182 183 181 180 169 144 134 185 179 166 155 138 137 137 132
354 355 352 355 38 210 225 212 209 219 202 200 197 181 184 179 185 186 188 190 185 179 179 185 192 184 165 152 107 93 123 177 180 166 151 133 129 133
357 358 360 6 24 33 200 232 231 215 188 185 183 177 176 180 185 180 181 182 181 180 179 161 165 163 145 137 127 122 113 109 134 139 147 145 152 141
357 2 6 16 30 29 21 14 251 173 172 162 161 162 165 165 171 171 171 171 160 145 145 140 136 137 123 130 130 125 121 114 108 96 86 91 103 117
Height
774 772 771 762 765 760 764 767 769 774 772 779 783 785 788 792 796 800 805 809 814 819 823 828 832 836 839 842 845 848 852 854 856 858 859 861 864 866
770 767 763 761 757 755 754 757 762 764 764 769 772 776 778 783 787 792 794 799 804 810 815 819 824 829 831 834 838 841 845 848 850 852 853 854 856 858
762 759 756 757 753 748 744 747 752 754 755 757 763 767 772 775 779 782 787 789 793 799 804 809 814 820 824 826 830 833 837 840 843 846 846 849 849 851
755 753 748 749 744 744 740 735 741 744 747 748 753 757 762 766 770 773 778 781 784 788 794 799 804 809 814 818 821 825 829 832 835 837 839 842 843 844
748 745 742 742 738 737 733 731 729 735 739 742 744 749 753 757 762 766 768 772 776 780 783 789 794 799 804 809 811 815 819 823 826 829 831 833 836 837
739 737 736 733 731 729 727 722 724 725 728 730 738 740 743 747 752 756 761 764 767 771 774 779 784 788 793 798 802 804 809 813 817 819 822 824 826 829
730 726 724 723 721 721 721 717 716 712 716 719 726 730 734 737 741 746 750 755 758 762 765 769 773 775 781 785 790 795 800 804 807 809 812 815 818 820
719 716 713 711 708 708 708 707 706 707 702 706 713 715 720 724 732 735 740 744 749 750 757 758 763 764 769 773 776 782 789 794 797 800 804 807 810 812
707 705 702 698 698 695 693 694 695 695 696 693 695 699 706 708 717 724 724 730 732 737 745 750 753 756 759 763 766 771 778 783 787 791 795 799 802 804
693 691 689 686 685 687 687 683 682 681 680 683 681 686 692 699 703 708 707 715 725 729 733 739 744 746 751 753 756 761 768 774 778 781 786 790 793 796
677 674 673 671 668 673 677 672 669 665 665 668 673 675 683 689 693 702 704 712 714 718 721 727 732 740 744 745 748 754 758 766 771 775 778 782 785 788
663 657 655 653 653 660 662 661 657 647 651 653 659 664 669 674 680 685 693 695 701 708 709 717 721 728 736 736 741 744 750 756 761 766 769 772 776 779
649 642 637 635 636 641 645 646 637 641 641 643 645 650 655 660 665 672 679 683 687 690 694 707 711 719 723 726 731 736 740 747 752 757 761 763 767 772
633 628 622 618 619 623 627 624 626 636 636 628 632 635 640 644 651 659 669 673 677 680 686 689 696 704 711 719 725 728 734 739 743 748 752 755 760 764
616 609 605 603 602 604 607 608 615 623 620 613 612 618 624 631 641 650 658 666 670 674 679 684 686 693 699 703 711 720 726 731 735 738 743 749 752 756
594 586 582 583 584 583 590 592 597 599 602 601 593 602 614 621 627 634 644 653 660 665 670 678 682 685 691 696 703 710 716 721 725 732 738 743 746 750
572 565 560 560 561 563 566 570 571 577 582 583 582 589 596 604 613 623 633 642 647 655 660 669 675 679 684 688 696 700 707 712 717 724 732 737 742 747
547 537 534 535 534 538 544 549 550 552 558 567 567 573 582 588 601 612 620 629 636 643 651 657 665 673 680 686 688 693 699 704 711 718 725 729 737 744
527 502 505 511 510 517 525 531 530 535 539 551 546 552 565 578 589 599 608 619 627 633 639 646 653 659 669 678 687 689 692 698 706 717 722 724 731 739
523 506 493 492 495 502 508 512 520 520 524 536 537 537 554 565 577 589 599 606 615 625 631 640 642 644 650 660 678 686 690 695 702 711 717 724 733 739
528 516 506 496 490 492 496 495 502 505 509 519 524 530 544 554 566 576 585 596 605 611 620 627 633 640 643 651 670 686 694 698 700 703 713 721 729 737
537 525 515 503 492 488 486 485 485 493 497 505 517 527 536 547 559 562 573 586 594 602 612 622 626 634 639 646 666 679 694 698 704 710 714 717 722 731
546 535 522 508 495 486 485 482 484 475 489 497 508 519 529 539 550 558 567 577 587 596 606 617 625 630 637 645 662 678 690 698 701 710 718 721 723 728